| time (UTC) | temp F | wind direction | speed knots | gust knots | rain 1hr in | rain 24hr in | rain mn in | humidity % | barometer mb |
| 20260504050537 | 46 | 250 | 0.0 | 0.0 | 0.00 | 0.01 | 0.01 | 94 | 1008.9 |
| 20260504045531 | 46 | 277 | 1.7 | 1.7 | 0.00 | 0.01 | 0.01 | 94 | 1008.8 |
| 20260504045026 | 46 | 250 | 0.9 | 0.9 | 0.00 | 0.01 | 0.01 | 94 | 1008.9 |
| 20260504044524 | 46 | 240 | 0.9 | 0.9 | 0.00 | 0.01 | 0.01 | 94 | 1009.1 |
| 20260504044021 | 46 | 241 | 0.9 | 1.7 | 0.00 | 0.01 | 0.01 | 94 | 1009.3 |
| 20260504043518 | 46 | 248 | 0.9 | 0.9 | 0.00 | 0.01 | 0.01 | 94 | 1009.4 |
| 20260504043015 | 46 | 263 | 2.6 | 2.6 | 0.00 | 0.01 | 0.01 | 94 | 1009.5 |
| 20260504042512 | 46 | 267 | 0.9 | 0.9 | 0.00 | 0.01 | 0.01 | 94 | 1009.6 |
| 20260504042009 | 46 | 276 | 0.9 | 0.9 | 0.07 | 0.01 | 0.01 | 93 | 1009.6 |
| 20260504041505 | 46 | 263 | 1.7 | 1.7 | 0.00 | 0.00 | 0.00 | 93 | 1009.7 |
| 20260504041001 | 46 | 262 | 1.7 | 1.7 | 0.00 | 0.00 | 0.00 | 93 | 1009.6 |
| 20260504040459 | 46 | 258 | 1.7 | 1.7 | 0.05 | 0.00 | 0.00 | 93 | 1009.6 |
| 20260504035954 | 46 | 259 | 0.9 | 0.9 | 0.17 | 0.09 | 0.09 | 93 | 1009.5 |
| 20260504035452 | 46 | 268 | 0.9 | 0.9 | 0.05 | 0.07 | 0.07 | 92 | 1009.6 |
| 20260504034948 | 46 | 258 | 1.7 | 1.7 | 0.00 | 0.06 | 0.06 | 92 | 1009.7 |
| 20260504034446 | 46 | 274 | 0.9 | 1.7 | 0.00 | 0.06 | 0.06 | 92 | 1009.5 |
| 20260504033943 | 46 | 301 | 0.9 | 1.7 | 0.00 | 0.06 | 0.06 | 92 | 1009.6 |
| 20260504033441 | 45 | 250 | 1.7 | 1.7 | 0.00 | 0.06 | 0.06 | 92 | 1009.4 |
| 20260504032938 | 46 | 288 | 0.9 | 1.7 | 0.00 | 0.06 | 0.06 | 92 | 1009.4 |
| 20260504032435 | 45 | 269 | 1.7 | 1.7 | 0.00 | 0.06 | 0.06 | 92 | 1009.4 |
| 20260504031931 | 45 | 258 | 0.9 | 0.9 | 0.00 | 0.06 | 0.06 | 91 | 1009.2 |
| 20260504031428 | 45 | 254 | 0.0 | 0.0 | 0.00 | 0.06 | 0.06 | 91 | 1009.3 |
| 20260504030925 | 45 | 302 | 0.0 | 0.0 | 0.00 | 0.06 | 0.06 | 91 | 1009.4 |
| 20260504030422 | 45 | 233 | 0.9 | 1.7 | 0.00 | 0.06 | 0.06 | 91 | 1009.4 |
| 20260504025918 | 45 | 263 | 0.9 | 1.7 | 0.00 | 0.06 | 0.06 | 91 | 1009.5 |
| 20260504025415 | 45 | 258 | 0.9 | 0.9 | 0.00 | 0.06 | 0.06 | 91 | 1009.6 |
| 20260504024912 | 45 | 243 | 0.9 | 0.9 | 0.00 | 0.06 | 0.06 | 90 | 1009.6 |
| 20260504024409 | 45 | 253 | 0.9 | 0.9 | 0.00 | 0.06 | 0.06 | 90 | 1009.4 |
| 20260504023906 | 45 | 215 | 1.7 | 1.7 | 0.00 | 0.06 | 0.06 | 90 | 1009.5 |
| 20260504023403 | 45 | 267 | 0.9 | 0.9 | 0.00 | 0.06 | 0.06 | 90 | 1009.9 |
| 20260504022858 | 45 | 173 | 0.9 | 0.9 | 0.07 | 0.06 | 0.06 | 89 | 1009.9 |
| 20260504022355 | 45 | 262 | 1.7 | 1.7 | 0.07 | 0.06 | 0.06 | 89 | 1009.9 |
| 20260504021851 | 45 | 241 | 2.6 | 2.6 | 0.00 | 0.05 | 0.05 | 88 | 1010.0 |
| 20260504021349 | 45 | 302 | 2.6 | 4.3 | 0.05 | 0.05 | 0.05 | 88 | 1010.0 |
| 20260504020845 | 45 | 260 | 0.0 | 0.0 | 0.12 | 0.05 | 0.05 | 87 | 1009.9 |
| 20260504020342 | 46 | 276 | 1.7 | 1.7 | 0.07 | 0.04 | 0.04 | 86 | 1010.1 |
| 20260504015838 | 46 | 259 | 0.9 | 0.9 | 0.05 | 0.03 | 0.03 | 85 | 1010.1 |
| 20260504015335 | 46 | 249 | 1.7 | 1.7 | 0.05 | 0.03 | 0.03 | 83 | 1010.1 |
| 20260504014831 | 46 | 276 | 4.3 | 6.1 | 0.07 | 0.02 | 0.02 | 82 | 1010.1 |
| 20260504014327 | 47 | 234 | 3.5 | 4.3 | 0.00 | 0.01 | 0.01 | 80 | 1010.2 |
| 20260504013825 | 47 | 227 | 0.9 | 0.9 | 0.05 | 0.01 | 0.01 | 79 | 1010.1 |
| 20260504013322 | 47 | 248 | 0.9 | 0.9 | 0.05 | 0.01 | 0.01 | 77 | 1010.3 |
| 20260504012819 | 48 | 247 | 2.6 | 4.3 | 0.00 | 0.00 | 0.00 | 74 | 1010.1 |
| 20260504012316 | 48 | 243 | 0.9 | 1.7 | 0.00 | 0.00 | 0.00 | 72 | 1010.1 |
| 20260504011814 | 49 | 254 | 0.9 | 0.9 | 0.00 | 0.00 | 0.00 | 68 | 1009.8 |
| 20260504011310 | 49 | 234 | 1.7 | 1.7 | 0.00 | 0.00 | 0.00 | 66 | 1009.9 |
| 20260504010806 | 49 | 258 | 0.0 | 0.0 | 0.00 | 0.00 | 0.00 | 63 | 1009.7 |
| 20260504010302 | 49 | 248 | 1.7 | 1.7 | 0.00 | 0.00 | 0.00 | 61 | 1009.9 |
| 20260504005759 | 49 | 242 | 0.9 | 0.9 | 0.00 | 0.00 | 0.00 | 61 | 1009.5 |
| 20260504005256 | 49 | 236 | 0.9 | 1.7 | 0.00 | 0.00 | 0.00 | 60 | 1009.6 |
| 20260504004754 | 49 | 242 | 0.9 | 0.9 | 0.00 | 0.00 | 0.00 | 58 | 1009.6 |
| 20260504004251 | 49 | 239 | 0.9 | 0.9 | 0.00 | 0.00 | 0.00 | 58 | 1009.8 |
| 20260504003747 | 49 | 256 | 0.0 | 0.9 | 0.00 | 0.00 | 0.00 | 58 | 1009.4 |
| 20260504003244 | 49 | 275 | 0.0 | 0.9 | 0.00 | 0.00 | 0.00 | 57 | 1009.4 |
| 20260504002740 | 49 | 251 | 0.9 | 0.9 | 0.00 | 0.00 | 0.00 | 57 | 1009.6 |
| 20260504002237 | 49 | 252 | 0.0 | 0.9 | 0.00 | 0.00 | 0.00 | 57 | 1009.7 |
| 20260504001735 | 49 | 260 | 0.9 | 0.9 | 0.00 | 0.00 | 0.00 | 56 | 1009.6 |
| 20260504001232 | 49 | 302 | 0.0 | 0.0 | 0.00 | 0.00 | 0.00 | 56 | 1009.6 |
| 20260504000729 | 49 | 260 | 0.9 | 0.9 | 0.00 | 0.00 | 0.00 | 55 | 1009.8 |
| 20260504000226 | 49 | 273 | 0.9 | 1.7 | 0.00 | 0.00 | 0.00 | 54 | 1009.7 |
| 20260503235724 | 50 | 255 | 0.9 | 1.7 | 0.00 | 0.00 | 0.00 | 52 | 1009.7 |
| 20260503235221 | 50 | 239 | 1.7 | 2.6 | 0.00 | 0.00 | 0.00 | 50 | 1009.7 |
| 20260503234719 | 50 | 261 | 2.6 | 2.6 | 0.00 | 0.00 | 0.00 | 48 | 1009.6 |
| 20260503234217 | 50 | 254 | 0.9 | 1.7 | 0.00 | 0.00 | 0.00 | 48 | 1009.7 |
| 20260503233713 | 50 | 273 | 1.7 | 1.7 | 0.00 | 0.00 | 0.00 | 46 | 1009.6 |
| 20260503233209 | 50 | 193 | 1.7 | 1.7 | 0.00 | 0.00 | 0.00 | 46 | 1009.7 |
| 20260503232706 | 50 | 256 | 0.9 | 0.9 | 0.00 | 0.00 | 0.00 | 45 | 1009.9 |
| 20260503232203 | 50 | 246 | 0.9 | 0.9 | 0.00 | 0.00 | 0.00 | 45 | 1009.9 |
| 20260503231702 | 50 | 261 | 0.0 | 0.9 | 0.00 | 0.00 | 0.00 | 44 | 1009.8 |
| 20260503231157 | 50 | 241 | 1.7 | 2.6 | 0.00 | 0.00 | 0.00 | 42 | 1009.7 |
| 20260503230654 | 50 | 253 | 0.9 | 0.9 | 0.00 | 0.00 | 0.00 | 45 | 1009.8 |
| 20260503230151 | 50 | 272 | 4.3 | 5.2 | 0.00 | 0.00 | 0.00 | 44 | 1009.8 |
| 20260503225648 | 51 | 290 | 0.9 | 0.9 | 0.00 | 0.00 | 0.00 | 45 | 1009.7 |
| 20260503225148 | 51 | 245 | 1.7 | 1.7 | 0.00 | 0.00 | 0.00 | 42 | 1009.7 |
| 20260503224646 | 51 | 284 | 3.5 | 4.3 | 0.00 | 0.00 | 0.00 | 40 | 1009.8 |
| 20260503224144 | 51 | 245 | 2.6 | 2.6 | 0.00 | 0.00 | 0.00 | 39 | 1009.6 |
| 20260503223642 | 51 | 272 | 2.6 | 2.6 | 0.00 | 0.00 | 0.00 | 39 | 1009.8 |
| 20260503223138 | 51 | 258 | 3.5 | 4.3 | 0.00 | 0.00 | 0.00 | 37 | 1009.8 |
| 20260503222635 | 51 | 263 | 4.3 | 4.3 | 0.00 | 0.00 | 0.00 | 38 | 1009.9 |
| 20260503222132 | 52 | 288 | 2.6 | 2.6 | 0.00 | 0.00 | 0.00 | 40 | 1009.8 |
| 20260503221631 | 52 | 289 | 3.5 | 4.3 | 0.00 | 0.00 | 0.00 | 40 | 1009.9 |
| 20260503221128 | 52 | 249 | 4.3 | 5.2 | 0.00 | 0.00 | 0.00 | 39 | 1009.9 |
| 20260503220624 | 51 | 258 | 1.7 | 1.7 | 0.00 | 0.00 | 0.00 | 39 | 1009.9 |
| 20260503220121 | 52 | 295 | 2.6 | 4.3 | 0.00 | 0.00 | 0.00 | 40 | 1010.0 |
| 20260503215618 | 52 | 294 | 4.3 | 6.1 | 0.00 | 0.00 | 0.00 | 38 | 1010.0 |
| 20260503215115 | 52 | 251 | 2.6 | 4.3 | 0.00 | 0.00 | 0.00 | 40 | 1009.8 |
| 20260503214613 | 52 | 258 | 1.7 | 1.7 | 0.00 | 0.00 | 0.00 | 40 | 1009.9 |
| 20260503214109 | 52 | 271 | 6.1 | 7.0 | 0.00 | 0.00 | 0.00 | 38 | 1010.0 |
| 20260503213609 | 52 | 273 | 4.3 | 5.2 | 0.00 | 0.00 | 0.00 | 38 | 1009.7 |
| 20260503213104 | 54 | 265 | 3.5 | 5.2 | 0.00 | 0.00 | 0.00 | 38 | 1010.0 |
| 20260503212602 | 54 | 287 | 5.2 | 7.0 | 0.00 | 0.00 | 0.00 | 39 | 1009.8 |
| 20260503212059 | 53 | 327 | 7.8 | 9.6 | 0.00 | 0.00 | 0.00 | 41 | 1010.1 |
| 20260503211556 | 55 | 286 | 6.1 | 7.0 | 0.00 | 0.00 | 0.00 | 40 | 1009.9 |
| 20260503211051 | 53 | 268 | 4.3 | 5.2 | 0.00 | 0.00 | 0.00 | 44 | 1010.1 |
| 20260503210549 | 53 | 307 | 4.3 | 5.2 | 0.00 | 0.00 | 0.00 | 43 | 1010.1 |
| 20260503210044 | 52 | 324 | 3.5 | 4.3 | 0.00 | 0.00 | 0.00 | 45 | 1010.2 |
| 20260503205541 | 53 | 241 | 4.3 | 5.2 | 0.00 | 0.00 | 0.00 | 45 | 1010.2 |
| 20260503205038 | 52 | 302 | 2.6 | 5.2 | 0.00 | 0.00 | 0.00 | 47 | 1010.2 |
| 20260503204535 | 51 | 284 | 6.1 | 7.0 | 0.00 | 0.00 | 0.00 | 47 | 1010.3 |
| 20260503204032 | 52 | 251 | 2.6 | 2.6 | 0.00 | 0.00 | 0.00 | 48 | 1010.4 |
| 20260503203529 | 51 | 276 | 8.7 | 13.0 | 0.00 | 0.00 | 0.00 | 46 | 1010.6 |
| 20260503203026 | 51 | 248 | 6.1 | 7.0 | 0.00 | 0.00 | 0.00 | 50 | 1010.5 |
| 20260503202524 | 52 | 288 | 6.1 | 8.7 | 0.00 | 0.00 | 0.00 | 49 | 1010.8 |
| 20260503202022 | 52 | 285 | 4.3 | 6.1 | 0.00 | 0.00 | 0.00 | 48 | 1010.6 |
| 20260503201520 | 53 | 331 | 6.1 | 7.8 | 0.00 | 0.00 | 0.00 | 47 | 1010.9 |
| 20260503201017 | 52 | 249 | 6.1 | 8.7 | 0.00 | 0.00 | 0.00 | 49 | 1010.5 |
| 20260503200513 | 52 | 260 | 3.5 | 7.0 | 0.00 | 0.00 | 0.00 | 48 | 1010.7 |
| 20260503200009 | 52 | 301 | 7.8 | 12.2 | 0.00 | 0.00 | 0.00 | 49 | 1010.7 |
| 20260503195507 | 52 | 271 | 5.2 | 7.8 | 0.00 | 0.00 | 0.00 | 49 | 1010.8 |
| 20260503195003 | 51 | 272 | 4.3 | 6.1 | 0.00 | 0.00 | 0.00 | 52 | 1010.9 |
| 20260503194501 | 51 | 244 | 6.1 | 7.8 | 0.00 | 0.00 | 0.00 | 49 | 1010.7 |
| 20260503193955 | 51 | 264 | 4.3 | 6.1 | 0.00 | 0.00 | 0.00 | 52 | 1010.8 |
| 20260503193451 | 53 | 272 | 5.2 | 7.8 | 0.00 | 0.00 | 0.00 | 48 | 1011.0 |
| 20260503192947 | 53 | 317 | 4.3 | 5.2 | 0.00 | 0.00 | 0.00 | 48 | 1011.0 |
| 20260503192443 | 51 | 251 | 4.3 | 6.1 | 0.00 | 0.00 | 0.00 | 47 | 1011.1 |
| 20260503191939 | 53 | 291 | 7.8 | 11.3 | 0.00 | 0.00 | 0.00 | 46 | 1011.2 |
| 20260503191437 | 52 | 266 | 2.6 | 2.6 | 0.00 | 0.00 | 0.00 | 45 | 1011.3 |
| 20260503190933 | 52 | 310 | 6.1 | 7.8 | 0.00 | 0.00 | 0.00 | 44 | 1011.4 |
| 20260503190431 | 52 | 290 | 4.3 | 5.2 | 0.00 | 0.00 | 0.00 | 43 | 1011.5 |
| 20260503185927 | 53 | 325 | 3.5 | 5.2 | 0.00 | 0.00 | 0.00 | 43 | 1011.3 |
| 20260503185424 | 51 | 297 | 2.6 | 4.3 | 0.00 | 0.00 | 0.00 | 45 | 1011.7 |
| 20260503184923 | 51 | 278 | 3.5 | 5.2 | 0.00 | 0.00 | 0.00 | 43 | 1011.4 |
| 20260503184420 | 52 | 313 | 6.1 | 7.0 | 0.00 | 0.00 | 0.00 | 43 | 1011.7 |
| 20260503183916 | 53 | 249 | 5.2 | 6.1 | 0.00 | 0.00 | 0.00 | 41 | 1011.8 |
| 20260503183413 | 51 | 240 | 0.9 | 1.7 | 0.00 | 0.00 | 0.00 | 41 | 1011.8 |
| 20260503182910 | 52 | 253 | 2.6 | 4.3 | 0.00 | 0.00 | 0.00 | 42 | 1011.6 |
| 20260503182409 | 51 | 185 | 4.3 | 6.1 | 0.00 | 0.00 | 0.00 | 39 | 1011.7 |
| 20260503181906 | 52 | 242 | 4.3 | 6.1 | 0.00 | 0.00 | 0.00 | 40 | 1011.7 |
| 20260503181403 | 52 | 258 | 4.3 | 6.1 | 0.00 | 0.00 | 0.00 | 38 | 1011.7 |
| 20260503180859 | 52 | 297 | 5.2 | 6.1 | 0.00 | 0.00 | 0.00 | 39 | 1011.7 |
| 20260503180357 | 52 | 287 | 3.5 | 4.3 | 0.00 | 0.00 | 0.00 | 39 | 1011.8 |
| 20260503175853 | 51 | 273 | 3.5 | 4.3 | 0.00 | 0.00 | 0.00 | 41 | 1011.6 |
| 20260503175351 | 51 | 273 | 4.3 | 6.1 | 0.00 | 0.00 | 0.00 | 40 | 1011.6 |
| 20260503174847 | 52 | 258 | 7.8 | 11.3 | 0.00 | 0.00 | 0.00 | 41 | 1011.8 |
| 20260503174346 | 52 | 265 | 6.1 | 7.8 | 0.00 | 0.00 | 0.00 | 42 | 1011.9 |
| 20260503173845 | 51 | 292 | 2.6 | 2.6 | 0.00 | 0.00 | 0.00 | 41 | 1011.9 |
| 20260503173342 | 51 | 173 | 3.5 | 4.3 | 0.00 | 0.00 | 0.00 | 44 | 1011.9 |
| 20260503172839 | 51 | 214 | 2.6 | 4.3 | 0.00 | 0.00 | 0.00 | 46 | 1012.1 |
| 20260503172337 | 50 | 322 | 5.2 | 5.2 | 0.00 | 0.00 | 0.00 | 45 | 1011.8 |
| 20260503171832 | 51 | 346 | 6.1 | 7.8 | 0.00 | 0.00 | 0.00 | 42 | 1012.0 |
| 20260503171329 | 51 | 266 | 5.2 | 7.0 | 0.00 | 0.00 | 0.00 | 45 | 1012.0 |
| 20260503170826 | 50 | 249 | 3.5 | 5.2 | 0.00 | 0.00 | 0.00 | 47 | 1012.1 |
| 20260503170323 | 51 | 266 | 2.6 | 4.3 | 0.00 | 0.00 | 0.00 | 46 | 1012.3 |
| 20260503150715 | 47 | 284 | 4.3 | 6.1 | 0.00 | 0.00 | 0.00 | 48 | 1013.4 |
| 20260503150211 | 48 | 269 | 5.2 | 6.1 | 0.00 | 0.00 | 0.00 | 48 | 1013.6 |
| 20260503140136 | 46 | 307 | 3.5 | 5.2 | 0.00 | 0.00 | 0.00 | 52 | 1013.5 |
| 20260503131105 | 45 | 281 | 2.6 | 2.6 | 0.00 | 0.00 | 0.00 | 55 | 1013.9 |
| 20260503130603 | 45 | 309 | 3.5 | 5.2 | 0.00 | 0.00 | 0.00 | 57 | 1013.8 |
| 20260503110453 | 39 | 256 | 0.0 | 0.0 | 0.00 | 0.00 | 0.00 | 86 | 1013.2 |
| 20260503090339 | 37 | 254 | 0.0 | 0.0 | 0.00 | 0.00 | 0.00 | 91 | 1013.1 |
| 20260503081306 | 38 | 256 | 0.0 | 0.0 | 0.00 | 0.00 | 0.00 | 91 | 1013.6 |
| 20260503080802 | 38 | 256 | 0.0 | 0.0 | 0.00 | 0.00 | 0.00 | 91 | 1013.6 |
| 20260503080300 | 38 | 256 | 0.0 | 0.0 | 0.00 | 0.00 | 0.00 | 91 | 1013.6 |
| 20260503072736 | 38 | 258 | 0.0 | 0.0 | 0.00 | 0.00 | 0.00 | 89 | 1013.5 |
| 20260503072232 | 38 | 261 | 0.0 | 0.0 | 0.00 | 0.00 | 0.00 | 89 | 1013.5 |
| 20260503071729 | 38 | 261 | 0.0 | 0.0 | 0.00 | 0.00 | 0.00 | 89 | 1013.3 |
| 20260503071226 | 38 | 261 | 0.0 | 0.0 | 0.00 | 0.00 | 0.00 | 89 | 1013.4 |
| 20260503070722 | 38 | 261 | 0.0 | 0.0 | 0.00 | 0.00 | 0.00 | 89 | 1013.5 |
| 20260503070221 | 38 | 256 | 0.0 | 0.0 | 0.00 | 0.00 | 0.00 | 88 | 1013.4 |
| 20260503060145 | 39 | 258 | 0.0 | 0.0 | 0.00 | 0.00 | 0.00 | 86 | 1013.5 |
| 20260503054632 | 40 | 260 | 0.0 | 0.0 | 0.00 | 0.00 | 0.00 | 86 | 1013.7 |